| time (UTC) | temp F | wind direction | speed knots | gust knots | rain 1hr in | rain 24hr in | rain mn in | humidity % | barometer mb |
| 20260906204018 | 99 | 54 | 1.7 | 4.3 | 0.00 | 0.00 | 0.00 | 35 | 1012.0 |
| 20260906203519 | 99 | 77 | 3.5 | 6.1 | 0.00 | 0.00 | 0.00 | 34 | 1012.1 |
| 20260906203039 | 99 | 167 | 2.6 | 7.0 | 0.00 | 0.00 | 0.00 | 35 | 1012.2 |
| 20260906202519 | 99 | 160 | 4.3 | 7.8 | 0.00 | 0.00 | 0.00 | 35 | 1012.2 |
| 20260906202039 | 99 | 156 | 2.6 | 6.1 | 0.00 | 0.00 | 0.00 | 35 | 1012.2 |
| 20260906201516 | 99 | 116 | 3.5 | 6.1 | 0.00 | 0.00 | 0.00 | 34 | 1012.3 |
| 20260906201039 | 100 | 133 | 5.2 | 8.7 | 0.00 | 0.00 | 0.00 | 35 | 1012.4 |
| 20260906200519 | 100 | 126 | 2.6 | 7.0 | 0.00 | 0.00 | 0.00 | 35 | 1012.4 |
| 20260906200019 | 100 | 190 | 5.2 | 7.8 | 0.00 | 0.00 | 0.00 | 34 | 1012.6 |
| 20260906195519 | 100 | 181 | 4.3 | 7.8 | 0.00 | 0.00 | 0.00 | 34 | 1012.7 |
| 20260906195019 | 100 | 189 | 3.5 | 7.8 | 0.00 | 0.00 | 0.00 | 33 | 1012.7 |
| 20260906194519 | 99 | 162 | 5.2 | 9.6 | 0.00 | 0.00 | 0.00 | 34 | 1012.7 |
| 20260906194019 | 99 | 56 | 2.6 | 6.1 | 0.00 | 0.00 | 0.00 | 36 | 1012.8 |
| 20260906193600 | 99 | 106 | 2.6 | 7.0 | 0.00 | 0.00 | 0.00 | 36 | 1012.9 |
| 20260906193019 | 99 | 97 | 3.5 | 8.7 | 0.00 | 0.00 | 0.00 | 35 | 1012.9 |
| 20260906192516 | 100 | 124 | 4.3 | 7.8 | 0.00 | 0.00 | 0.00 | 35 | 1013.0 |
| 20260906192016 | 99 | 138 | 4.3 | 7.8 | 0.00 | 0.00 | 0.00 | 35 | 1013.0 |
| 20260906191516 | 99 | 159 | 2.6 | 6.1 | 0.00 | 0.00 | 0.00 | 35 | 1013.1 |
| 20260906191020 | 98 | 164 | 2.6 | 6.1 | 0.00 | 0.00 | 0.00 | 36 | 1013.1 |
| 20260906190520 | 98 | 123 | 2.6 | 7.0 | 0.00 | 0.00 | 0.00 | 37 | 1013.2 |
| 20260906190020 | 97 | 105 | 3.5 | 6.1 | 0.00 | 0.00 | 0.00 | 38 | 1013.3 |
| 20260906185520 | 97 | 84 | 2.6 | 5.2 | 0.00 | 0.00 | 0.00 | 38 | 1013.4 |
| 20260906185020 | 97 | 95 | 4.3 | 7.8 | 0.00 | 0.00 | 0.00 | 38 | 1013.4 |
| 20260906184520 | 96 | 97 | 3.5 | 6.1 | 0.00 | 0.00 | 0.00 | 38 | 1013.5 |
| 20260906184017 | 96 | 74 | 2.6 | 8.7 | 0.00 | 0.00 | 0.00 | 39 | 1013.6 |
| 20260906183537 | 96 | 41 | 1.7 | 5.2 | 0.00 | 0.00 | 0.00 | 40 | 1013.7 |
| 20260906183017 | 96 | 44 | 3.5 | 5.2 | 0.00 | 0.00 | 0.00 | 40 | 1013.7 |
| 20260906182538 | 97 | 65 | 2.6 | 6.1 | 0.00 | 0.00 | 0.00 | 40 | 1013.8 |
| 20260906182018 | 97 | 98 | 4.3 | 7.8 | 0.00 | 0.00 | 0.00 | 39 | 1013.9 |
| 20260906181518 | 97 | 80 | 6.1 | 8.7 | 0.00 | 0.00 | 0.00 | 38 | 1013.8 |
| 20260906181020 | 97 | 161 | 2.6 | 7.0 | 0.00 | 0.00 | 0.00 | 39 | 1013.9 |
| 20260906180540 | 97 | 147 | 4.3 | 10.4 | 0.00 | 0.00 | 0.00 | 39 | 1014.1 |
| 20260906180021 | 97 | 144 | 2.6 | 5.2 | 0.00 | 0.00 | 0.00 | 40 | 1014.1 |
| 20260906175518 | 96 | 73 | 1.7 | 4.3 | 0.00 | 0.00 | 0.00 | 40 | 1014.2 |
| 20260906175018 | 96 | 48 | 3.5 | 7.0 | 0.00 | 0.00 | 0.00 | 41 | 1014.3 |
| 20260906174538 | 96 | 76 | 3.5 | 7.0 | 0.00 | 0.00 | 0.00 | 41 | 1014.4 |
| 20260906174018 | 96 | 145 | 3.5 | 6.1 | 0.00 | 0.00 | 0.00 | 41 | 1014.6 |
| 20260906173518 | 95 | 169 | 2.6 | 10.4 | 0.00 | 0.00 | 0.00 | 41 | 1014.6 |
| 20260906173018 | 95 | 164 | 2.6 | 6.1 | 0.00 | 0.00 | 0.00 | 42 | 1014.7 |
| 20260906172518 | 95 | 173 | 4.3 | 8.7 | 0.00 | 0.00 | 0.00 | 42 | 1014.8 |
| 20260906172018 | 95 | 156 | 1.7 | 4.3 | 0.00 | 0.00 | 0.00 | 42 | 1014.9 |
| 20260906171518 | 95 | 193 | 4.3 | 7.8 | 0.00 | 0.00 | 0.00 | 41 | 1015.0 |
| 20260906170950 | 95 | 0.0 | 0.0 | 0.00 | 0.00 | 0.00 | 41 | 1015.0 | |
| 20260906170018 | 94 | 201 | 2.6 | 6.1 | 0.00 | 0.04 | 0.00 | 43 | 1015.2 |
| 20260906165538 | 95 | 218 | 5.2 | 7.0 | 0.00 | 0.04 | 0.00 | 43 | 1015.2 |
| 20260906164519 | 94 | 148 | 1.7 | 4.3 | 0.00 | 0.04 | 0.00 | 43 | 1015.4 |
| 20260906164039 | 94 | 36 | 1.7 | 3.5 | 0.00 | 0.04 | 0.00 | 43 | 1015.4 |
| 20260906163019 | 94 | 271 | 1.7 | 4.3 | 0.00 | 0.04 | 0.00 | 43 | 1015.4 |
| 20260906162519 | 94 | 280 | 1.7 | 4.3 | 0.00 | 0.04 | 0.00 | 43 | 1015.3 |
| 20260906162039 | 94 | 241 | 2.6 | 6.1 | 0.00 | 0.04 | 0.00 | 43 | 1015.3 |
| 20260906161519 | 93 | 162 | 1.7 | 5.2 | 0.00 | 0.04 | 0.00 | 44 | 1015.3 |
| 20260906161019 | 93 | 188 | 2.6 | 6.1 | 0.00 | 0.04 | 0.00 | 44 | 1015.3 |
| 20260906160519 | 93 | 130 | 1.7 | 4.3 | 0.00 | 0.04 | 0.00 | 44 | 1015.3 |
| 20260906160019 | 93 | 240 | 0.9 | 3.5 | 0.00 | 0.04 | 0.00 | 46 | 1015.3 |
| 20260906155519 | 93 | 155 | 2.6 | 5.2 | 0.00 | 0.04 | 0.00 | 45 | 1015.2 |
| 20260906155019 | 93 | 208 | 2.6 | 5.2 | 0.00 | 0.04 | 0.00 | 45 | 1015.2 |
| 20260906154519 | 92 | 239 | 2.6 | 5.2 | 0.00 | 0.04 | 0.00 | 46 | 1015.2 |
| 20260906154016 | 91 | 165 | 1.7 | 5.2 | 0.00 | 0.04 | 0.00 | 47 | 1015.2 |
| 20260906153516 | 91 | 236 | 2.6 | 6.1 | 0.00 | 0.04 | 0.00 | 47 | 1015.1 |
| 20260906153020 | 91 | 242 | 3.5 | 6.1 | 0.00 | 0.04 | 0.00 | 47 | 1015.1 |
| 20260906152520 | 90 | 206 | 2.6 | 5.2 | 0.00 | 0.04 | 0.00 | 48 | 1015.1 |
| 20260906152020 | 90 | 214 | 2.6 | 4.3 | 0.00 | 0.04 | 0.00 | 49 | 1015.1 |
| 20260906151600 | 90 | 262 | 2.6 | 4.3 | 0.00 | 0.04 | 0.00 | 49 | 1015.1 |
| 20260906151040 | 90 | 236 | 2.6 | 5.2 | 0.00 | 0.04 | 0.00 | 49 | 1015.1 |
| 20260906150520 | 90 | 241 | 3.5 | 7.8 | 0.00 | 0.04 | 0.00 | 49 | 1015.1 |
| 20260906150017 | 89 | 242 | 2.6 | 4.3 | 0.00 | 0.04 | 0.00 | 50 | 1015.1 |
| 20260906145517 | 89 | 265 | 4.3 | 7.0 | 0.00 | 0.04 | 0.00 | 50 | 1015.1 |
| 20260906145017 | 89 | 252 | 4.3 | 6.1 | 0.00 | 0.04 | 0.00 | 51 | 1015.1 |
| 20260906144517 | 89 | 242 | 3.5 | 6.1 | 0.00 | 0.04 | 0.00 | 51 | 1015.1 |
| 20260906144017 | 89 | 256 | 3.5 | 6.1 | 0.00 | 0.04 | 0.00 | 51 | 1015.1 |
| 20260906143537 | 88 | 223 | 3.5 | 6.1 | 0.00 | 0.04 | 0.00 | 51 | 1015.0 |
| 20260906143020 | 88 | 231 | 3.5 | 5.2 | 0.00 | 0.04 | 0.00 | 51 | 1015.0 |
| 20260906142520 | 87 | 252 | 2.6 | 5.2 | 0.00 | 0.04 | 0.00 | 52 | 1015.0 |
| 20260906142021 | 87 | 220 | 2.6 | 3.5 | 0.00 | 0.04 | 0.00 | 53 | 1015.0 |
| 20260906141558 | 86 | 223 | 2.6 | 4.3 | 0.00 | 0.04 | 0.00 | 54 | 1015.0 |
| 20260906141018 | 86 | 231 | 2.6 | 5.2 | 0.00 | 0.04 | 0.00 | 54 | 1015.0 |
| 20260906140517 | 86 | 234 | 3.5 | 6.1 | 0.00 | 0.04 | 0.00 | 54 | 1014.9 |
| 20260906140017 | 85 | 236 | 2.6 | 4.3 | 0.00 | 0.04 | 0.00 | 54 | 1014.9 |
| 20260906135538 | 85 | 204 | 3.5 | 5.2 | 0.00 | 0.04 | 0.00 | 55 | 1014.9 |
| 20260906135018 | 84 | 215 | 2.6 | 4.3 | 0.00 | 0.04 | 0.00 | 56 | 1014.8 |
| 20260906134538 | 84 | 211 | 2.6 | 5.2 | 0.00 | 0.05 | 0.00 | 57 | 1014.8 |
| 20260906134018 | 83 | 214 | 3.5 | 5.2 | 0.00 | 0.05 | 0.00 | 58 | 1014.8 |
| 20260906133538 | 83 | 207 | 2.6 | 4.3 | 0.00 | 0.05 | 0.00 | 58 | 1014.7 |
| 20260906133018 | 82 | 201 | 2.6 | 4.3 | 0.00 | 0.05 | 0.00 | 59 | 1014.7 |
| 20260906132518 | 82 | 203 | 2.6 | 4.3 | 0.00 | 0.05 | 0.00 | 60 | 1014.7 |
| 20260906132018 | 81 | 200 | 2.6 | 3.5 | 0.00 | 0.05 | 0.00 | 60 | 1014.7 |
| 20260906131518 | 81 | 204 | 1.7 | 3.5 | 0.00 | 0.05 | 0.00 | 60 | 1014.6 |
| 20260906131038 | 81 | 195 | 0.9 | 2.6 | 0.00 | 0.05 | 0.00 | 61 | 1014.6 |
| 20260906130518 | 81 | 219 | 2.6 | 3.5 | 0.00 | 0.05 | 0.00 | 61 | 1014.6 |
| 20260906130018 | 81 | 200 | 1.7 | 3.5 | 0.00 | 0.05 | 0.00 | 61 | 1014.5 |
| 20260906125518 | 81 | 201 | 1.7 | 3.5 | 0.00 | 0.05 | 0.00 | 61 | 1014.5 |
| 20260906125018 | 81 | 198 | 1.7 | 3.5 | 0.00 | 0.05 | 0.00 | 61 | 1014.4 |
| 20260906124519 | 81 | 211 | 1.7 | 3.5 | 0.00 | 0.05 | 0.00 | 61 | 1014.4 |
| 20260906124019 | 80 | 207 | 1.7 | 3.5 | 0.00 | 0.05 | 0.00 | 61 | 1014.4 |
| 20260906123519 | 80 | 192 | 2.6 | 3.5 | 0.00 | 0.05 | 0.00 | 61 | 1014.3 |
| 20260906123019 | 80 | 195 | 1.7 | 3.5 | 0.00 | 0.05 | 0.00 | 61 | 1014.3 |
| 20260906122519 | 80 | 203 | 0.9 | 2.6 | 0.00 | 0.05 | 0.00 | 62 | 1014.2 |
| 20260906122019 | 80 | 187 | 1.7 | 2.6 | 0.00 | 0.05 | 0.00 | 62 | 1014.1 |
| 20260906121519 | 80 | 190 | 1.7 | 3.5 | 0.00 | 0.05 | 0.00 | 62 | 1014.1 |
| 20260906121019 | 80 | 192 | 1.7 | 3.5 | 0.00 | 0.05 | 0.00 | 62 | 1014.1 |
| 20260906120519 | 80 | 186 | 1.7 | 3.5 | 0.00 | 0.05 | 0.00 | 61 | 1014.1 |
| 20260906120016 | 80 | 214 | 2.6 | 3.5 | 0.00 | 0.05 | 0.00 | 61 | 1014.0 |
| 20260906115516 | 80 | 211 | 1.7 | 4.3 | 0.00 | 0.05 | 0.00 | 62 | 1014.0 |
| 20260906115019 | 80 | 202 | 2.6 | 4.3 | 0.00 | 0.05 | 0.00 | 61 | 1014.0 |
| 20260906114519 | 80 | 192 | 1.7 | 4.3 | 0.00 | 0.05 | 0.00 | 61 | 1013.9 |
| 20260906114019 | 80 | 189 | 0.9 | 2.6 | 0.00 | 0.05 | 0.00 | 61 | 1013.8 |
| 20260906113519 | 80 | 195 | 0.9 | 2.6 | 0.00 | 0.05 | 0.00 | 61 | 1013.7 |
| 20260906113020 | 80 | 184 | 1.7 | 3.5 | 0.00 | 0.05 | 0.00 | 61 | 1013.7 |
| 20260906112519 | 81 | 192 | 0.9 | 2.6 | 0.00 | 0.05 | 0.00 | 61 | 1013.7 |
| 20260906112020 | 81 | 198 | 2.6 | 3.5 | 0.00 | 0.05 | 0.00 | 61 | 1013.6 |
| 20260906111537 | 81 | 197 | 1.7 | 3.5 | 0.00 | 0.05 | 0.00 | 60 | 1013.6 |
| 20260906111017 | 81 | 193 | 1.7 | 3.5 | 0.00 | 0.05 | 0.00 | 60 | 1013.5 |
| 20260906110517 | 81 | 206 | 1.7 | 2.6 | 0.00 | 0.05 | 0.00 | 60 | 1013.5 |
| 20260906110017 | 81 | 191 | 1.7 | 2.6 | 0.00 | 0.05 | 0.00 | 60 | 1013.5 |
| 20260906105517 | 81 | 214 | 1.7 | 3.5 | 0.00 | 0.05 | 0.00 | 60 | 1013.5 |
| 20260906105040 | 81 | 66 | 0.9 | 2.6 | 0.00 | 0.05 | 0.00 | 60 | 1013.4 |
| 20260906104520 | 81 | 205 | 2.6 | 4.3 | 0.00 | 0.05 | 0.00 | 60 | 1013.4 |
| 20260906104021 | 81 | 203 | 1.7 | 3.5 | 0.00 | 0.05 | 0.00 | 60 | 1013.4 |
| 20260906103517 | 81 | 213 | 3.5 | 7.0 | 0.00 | 0.05 | 0.00 | 59 | 1013.3 |
| 20260906103017 | 81 | 201 | 1.7 | 2.6 | 0.00 | 0.05 | 0.00 | 59 | 1013.3 |
| 20260906102518 | 81 | 197 | 2.6 | 3.5 | 0.00 | 0.05 | 0.00 | 59 | 1013.3 |
| 20260906102018 | 81 | 200 | 1.7 | 4.3 | 0.00 | 0.05 | 0.00 | 59 | 1013.3 |
| 20260906101518 | 82 | 213 | 1.7 | 3.5 | 0.00 | 0.05 | 0.00 | 58 | 1013.2 |
| 20260906101017 | 82 | 206 | 2.6 | 3.5 | 0.00 | 0.05 | 0.00 | 58 | 1013.2 |
| 20260906100518 | 82 | 206 | 1.7 | 2.6 | 0.00 | 0.05 | 0.00 | 58 | 1013.2 |
| 20260906100021 | 82 | 215 | 1.7 | 3.5 | 0.00 | 0.05 | 0.00 | 58 | 1013.2 |
| 20260906095521 | 82 | 204 | 1.7 | 3.5 | 0.00 | 0.05 | 0.00 | 58 | 1013.2 |
| 20260906095018 | 82 | 206 | 2.6 | 4.3 | 0.00 | 0.05 | 0.00 | 57 | 1013.2 |
| 20260906094538 | 83 | 197 | 2.6 | 3.5 | 0.00 | 0.05 | 0.00 | 57 | 1013.2 |
| 20260906094018 | 83 | 210 | 1.7 | 4.3 | 0.00 | 0.05 | 0.00 | 56 | 1013.1 |
| 20260906093518 | 83 | 225 | 0.9 | 3.5 | 0.00 | 0.05 | 0.00 | 56 | 1013.1 |
| 20260906093018 | 83 | 241 | 0.9 | 2.6 | 0.00 | 0.05 | 0.00 | 56 | 1013.1 |
| 20260906092518 | 83 | 252 | 1.7 | 3.5 | 0.00 | 0.05 | 0.00 | 56 | 1013.1 |
| 20260906092018 | 83 | 219 | 0.9 | 2.6 | 0.00 | 0.05 | 0.00 | 56 | 1013.2 |
| 20260906091519 | 83 | 325 | 0.9 | 1.7 | 0.00 | 0.05 | 0.00 | 56 | 1013.2 |
| 20260906091019 | 83 | 339 | 0.9 | 2.6 | 0.00 | 0.05 | 0.00 | 55 | 1013.2 |
| 20260906090518 | 83 | 57 | 1.7 | 4.3 | 0.00 | 0.05 | 0.00 | 55 | 1013.2 |
| 20260906090018 | 83 | 246 | 0.9 | 2.6 | 0.00 | 0.05 | 0.00 | 55 | 1013.1 |
| 20260906085518 | 83 | 189 | 0.9 | 2.6 | 0.00 | 0.05 | 0.00 | 55 | 1013.1 |
| 20260906085019 | 83 | 210 | 2.6 | 7.0 | 0.00 | 0.05 | 0.00 | 55 | 1013.2 |
| 20260906084519 | 83 | 209 | 0.9 | 2.6 | 0.00 | 0.05 | 0.00 | 55 | 1013.1 |
| 20260906084019 | 83 | 228 | 1.7 | 2.6 | 0.00 | 0.05 | 0.00 | 55 | 1013.1 |
| 20260906083519 | 84 | 228 | 1.7 | 2.6 | 0.00 | 0.05 | 0.00 | 54 | 1013.0 |
| 20260906083019 | 84 | 206 | 2.6 | 3.5 | 0.00 | 0.05 | 0.00 | 54 | 1013.0 |
| 20260906082519 | 84 | 219 | 2.6 | 3.5 | 0.00 | 0.05 | 0.00 | 54 | 1012.9 |
| 20260906082039 | 84 | 242 | 2.6 | 4.3 | 0.00 | 0.05 | 0.00 | 54 | 1012.9 |
| 20260906081516 | 84 | 213 | 2.6 | 3.5 | 0.00 | 0.05 | 0.00 | 53 | 1012.9 |
| 20260906081016 | 85 | 204 | 2.6 | 3.5 | 0.00 | 0.05 | 0.00 | 53 | 1012.9 |
| 20260906080516 | 85 | 213 | 2.6 | 3.5 | 0.00 | 0.05 | 0.00 | 52 | 1012.9 |
| 20260906080019 | 85 | 210 | 1.7 | 3.5 | 0.00 | 0.05 | 0.00 | 52 | 1012.9 |
| 20260906075520 | 85 | 217 | 1.7 | 2.6 | 0.00 | 0.05 | 0.00 | 52 | 1012.9 |
| 20260906075019 | 85 | 241 | 1.7 | 3.5 | 0.00 | 0.05 | 0.00 | 51 | 1013.0 |
| 20260906074520 | 85 | 235 | 1.7 | 2.6 | 0.00 | 0.05 | 0.00 | 51 | 1012.9 |
| 20260906074040 | 85 | 213 | 1.7 | 2.6 | 0.00 | 0.05 | 0.00 | 51 | 1012.9 |
| 20260906073519 | 85 | 222 | 0.9 | 2.6 | 0.00 | 0.05 | 0.00 | 51 | 1013.0 |
| 20260906073020 | 85 | 245 | 0.0 | 1.7 | 0.00 | 0.05 | 0.00 | 51 | 1013.0 |
| 20260906072519 | 85 | 224 | 1.7 | 2.6 | 0.00 | 0.05 | 0.00 | 51 | 1013.0 |
| 20260906072017 | 86 | 217 | 1.7 | 2.6 | 0.00 | 0.05 | 0.00 | 51 | 1013.0 |
| 20260906071517 | 85 | 212 | 1.7 | 2.6 | 0.00 | 0.05 | 0.00 | 51 | 1013.0 |
| 20260906071017 | 86 | 229 | 0.9 | 2.6 | 0.00 | 0.05 | 0.00 | 51 | 1013.1 |
| 20260906070517 | 86 | 212 | 0.0 | 1.7 | 0.00 | 0.05 | 0.00 | 51 | 1013.1 |
| 20260906070020 | 86 | 239 | 0.9 | 2.6 | 0.00 | 0.05 | 0.00 | 50 | 1013.0 |
| 20260906065520 | 86 | 202 | 1.7 | 2.6 | 0.00 | 0.05 | 0.00 | 50 | 1013.0 |
| 20260906065020 | 86 | 215 | 0.9 | 2.6 | 0.00 | 0.05 | 0.00 | 50 | 1013.0 |
| 20260906064537 | 86 | 210 | 1.7 | 2.6 | 0.00 | 0.05 | 0.00 | 50 | 1012.9 |
| 20260906064017 | 86 | 207 | 1.7 | 2.6 | 0.00 | 0.05 | 0.00 | 49 | 1012.9 |
| 20260906063517 | 86 | 247 | 1.7 | 3.5 | 0.00 | 0.05 | 0.00 | 49 | 1013.0 |
| 20260906063018 | 86 | 259 | 1.7 | 2.6 | 0.00 | 0.05 | 0.00 | 49 | 1013.0 |
| 20260906062518 | 86 | 277 | 1.7 | 3.5 | 0.00 | 0.05 | 0.00 | 49 | 1013.0 |
| 20260906062038 | 86 | 251 | 1.7 | 5.2 | 0.00 | 0.05 | 0.00 | 50 | 1013.0 |
| 20260906061518 | 86 | 246 | 1.7 | 3.5 | 0.00 | 0.05 | 0.00 | 50 | 1013.0 |
| 20260906061021 | 86 | 293 | 1.7 | 4.3 | 0.00 | 0.05 | 0.00 | 50 | 1013.0 |
| 20260906060518 | 87 | 314 | 1.7 | 5.2 | 0.00 | 0.05 | 0.00 | 50 | 1013.0 |
| 20260906060018 | 87 | 314 | 2.6 | 6.1 | 0.00 | 0.05 | 0.00 | 49 | 1013.1 |
| 20260906055518 | 87 | 313 | 2.6 | 5.2 | 0.00 | 0.05 | 0.00 | 49 | 1013.1 |
| 20260906055038 | 87 | 315 | 2.6 | 8.7 | 0.00 | 0.05 | 0.00 | 49 | 1013.0 |
| 20260906054518 | 87 | 315 | 2.6 | 5.2 | 0.00 | 0.05 | 0.00 | 48 | 1013.0 |
| 20260906054038 | 87 | 315 | 2.6 | 7.0 | 0.00 | 0.05 | 0.00 | 48 | 1013.0 |
| 20260906053519 | 87 | 313 | 1.7 | 2.6 | 0.00 | 0.05 | 0.00 | 48 | 1012.9 |
| 20260906053018 | 88 | 293 | 1.7 | 6.1 | 0.00 | 0.05 | 0.00 | 48 | 1012.8 |
| 20260906052518 | 88 | 296 | 2.6 | 5.2 | 0.00 | 0.05 | 0.00 | 48 | 1012.8 |
| 20260906052019 | 88 | 313 | 1.7 | 2.6 | 0.00 | 0.05 | 0.00 | 47 | 1012.7 |
| 20260906051519 | 88 | 313 | 1.7 | 7.0 | 0.00 | 0.05 | 0.00 | 48 | 1012.7 |
| 20260906051019 | 88 | 319 | 1.7 | 3.5 | 0.00 | 0.05 | 0.00 | 48 | 1012.7 |
| 20260906050519 | 88 | 314 | 1.7 | 2.6 | 0.00 | 0.05 | 0.00 | 48 | 1012.7 |
| 20260906050019 | 88 | 314 | 1.7 | 2.6 | 0.00 | 0.05 | 0.00 | 48 | 1012.7 |
| 20260906045519 | 88 | 314 | 1.7 | 2.6 | 0.00 | 0.05 | 0.05 | 48 | 1012.7 |
| 20260906045039 | 88 | 312 | 1.7 | 3.5 | 0.00 | 0.05 | 0.05 | 47 | 1012.7 |
| 20260906044539 | 88 | 294 | 1.7 | 5.2 | 0.00 | 0.05 | 0.05 | 47 | 1012.7 |
| 20260906044019 | 88 | 300 | 1.7 | 2.6 | 0.00 | 0.05 | 0.05 | 47 | 1012.7 |
| 20260906043519 | 89 | 303 | 1.7 | 3.5 | 0.00 | 0.05 | 0.05 | 47 | 1012.7 |
| 20260906043019 | 89 | 297 | 1.7 | 3.5 | 0.00 | 0.05 | 0.05 | 46 | 1012.7 |
| 20260906042516 | 89 | 332 | 2.6 | 8.7 | 0.00 | 0.05 | 0.05 | 46 | 1012.7 |
| 20260906042019 | 89 | 306 | 1.7 | 2.6 | 0.00 | 0.05 | 0.05 | 46 | 1012.8 |
| 20260906041519 | 89 | 313 | 1.7 | 2.6 | 0.00 | 0.05 | 0.05 | 46 | 1012.8 |
| 20260906041019 | 89 | 313 | 1.7 | 3.5 | 0.00 | 0.05 | 0.05 | 46 | 1012.8 |
| 20260906040519 | 89 | 314 | 1.7 | 2.6 | 0.00 | 0.05 | 0.05 | 46 | 1012.8 |
| 20260906040019 | 89 | 314 | 1.7 | 3.5 | 0.00 | 0.05 | 0.05 | 46 | 1012.8 |
| 20260906035520 | 89 | 326 | 2.6 | 7.0 | 0.00 | 0.05 | 0.05 | 46 | 1012.9 |
| 20260906035020 | 89 | 294 | 1.7 | 3.5 | 0.00 | 0.05 | 0.05 | 46 | 1012.9 |
| 20260906034517 | 89 | 294 | 1.7 | 2.6 | 0.00 | 0.05 | 0.05 | 46 | 1012.8 |
| 20260906034037 | 89 | 272 | 1.7 | 3.5 | 0.00 | 0.05 | 0.05 | 46 | 1012.8 |
| 20260906033517 | 90 | 219 | 2.6 | 4.3 | 0.00 | 0.05 | 0.05 | 46 | 1012.7 |
| 20260906033017 | 90 | 229 | 2.6 | 3.5 | 0.00 | 0.05 | 0.05 | 45 | 1012.7 |
| 20260906032537 | 90 | 218 | 1.7 | 3.5 | 0.00 | 0.05 | 0.05 | 45 | 1012.7 |
| 20260906032040 | 90 | 199 | 2.6 | 4.3 | 0.00 | 0.05 | 0.05 | 45 | 1012.6 |
| 20260906031520 | 90 | 180 | 3.5 | 5.2 | 0.00 | 0.05 | 0.05 | 44 | 1012.7 |
| 20260906031020 | 91 | 185 | 2.6 | 4.3 | 0.00 | 0.05 | 0.05 | 44 | 1012.7 |
| 20260906030017 | 91 | 179 | 2.6 | 4.3 | 0.00 | 0.05 | 0.05 | 43 | 1012.7 |
| 20260906025517 | 92 | 182 | 2.6 | 5.2 | 0.00 | 0.05 | 0.05 | 43 | 1012.6 |
| 20260906025018 | 92 | 178 | 2.6 | 5.2 | 0.00 | 0.05 | 0.05 | 42 | 1012.5 |
| 20260906024517 | 92 | 192 | 1.7 | 4.3 | 0.00 | 0.05 | 0.05 | 42 | 1012.5 |
| 20260906024017 | 93 | 197 | 3.5 | 7.0 | 0.00 | 0.05 | 0.05 | 41 | 1012.5 |
| 20260906023538 | 93 | 164 | 3.5 | 5.2 | 0.00 | 0.05 | 0.05 | 41 | 1012.4 |
| 20260906023021 | 93 | 165 | 3.5 | 5.2 | 0.00 | 0.05 | 0.05 | 41 | 1012.4 |
| 20260906022518 | 93 | 163 | 3.5 | 5.2 | 0.00 | 0.05 | 0.05 | 41 | 1012.3 |
| 20260906022019 | 93 | 166 | 3.5 | 5.2 | 0.00 | 0.05 | 0.05 | 40 | 1012.2 |
| 20260906021518 | 94 | 165 | 3.5 | 5.2 | 0.00 | 0.05 | 0.05 | 40 | 1012.2 |
| 20260906021038 | 94 | 149 | 1.7 | 5.2 | 0.00 | 0.05 | 0.05 | 40 | 1012.1 |
| 20260906020518 | 94 | 160 | 2.6 | 4.3 | 0.00 | 0.05 | 0.05 | 40 | 1012.1 |
| 20260906020018 | 94 | 136 | 2.6 | 5.2 | 0.00 | 0.05 | 0.05 | 40 | 1012.1 |
| 20260906015518 | 94 | 154 | 3.5 | 5.2 | 0.00 | 0.05 | 0.05 | 39 | 1012.1 |
| 20260906015058 | 94 | 154 | 2.6 | 5.2 | 0.00 | 0.05 | 0.05 | 39 | 1012.0 |
| 20260906014518 | 94 | 149 | 1.7 | 3.5 | 0.00 | 0.05 | 0.05 | 39 | 1011.9 |
| 20260906014018 | 95 | 168 | 1.7 | 3.5 | 0.00 | 0.05 | 0.05 | 39 | 1011.9 |
| 20260906013519 | 95 | 159 | 2.6 | 4.3 | 0.00 | 0.05 | 0.05 | 39 | 1011.8 |
| 20260906013019 | 95 | 168 | 2.6 | 5.2 | 0.00 | 0.05 | 0.05 | 39 | 1011.7 |
| 20260906012538 | 95 | 160 | 2.6 | 5.2 | 0.00 | 0.05 | 0.05 | 38 | 1011.7 |
| 20260906012019 | 96 | 165 | 2.6 | 4.3 | 0.00 | 0.05 | 0.05 | 38 | 1011.7 |
| 20260906011519 | 96 | 142 | 3.5 | 5.2 | 0.00 | 0.05 | 0.05 | 38 | 1011.7 |
| 20260906011039 | 96 | 138 | 3.5 | 5.2 | 0.00 | 0.05 | 0.05 | 38 | 1011.6 |
| 20260906010519 | 96 | 124 | 2.6 | 4.3 | 0.00 | 0.05 | 0.05 | 38 | 1011.6 |
| 20260906010019 | 96 | 120 | 2.6 | 4.3 | 0.00 | 0.05 | 0.05 | 37 | 1011.5 |
| 20260906005519 | 97 | 93 | 3.5 | 7.8 | 0.00 | 0.05 | 0.05 | 37 | 1011.5 |
| 20260906005019 | 97 | 136 | 4.3 | 7.0 | 0.00 | 0.05 | 0.04 | 37 | 1011.4 |
| 20260906004559 | 97 | 139 | 3.5 | 7.0 | 0.00 | 0.05 | 0.04 | 36 | 1011.4 |
| 20260906004016 | 97 | 133 | 4.3 | 7.8 | 0.00 | 0.05 | 0.04 | 36 | 1011.4 |
| 20260906003517 | 98 | 139 | 4.3 | 7.8 | 0.00 | 0.05 | 0.04 | 36 | 1011.4 |
| 20260906003019 | 98 | 133 | 3.5 | 7.0 | 0.00 | 0.05 | 0.04 | 35 | 1011.4 |
| 20260906002520 | 98 | 133 | 4.3 | 7.8 | 0.00 | 0.05 | 0.04 | 35 | 1011.3 |
| 20260906002039 | 98 | 131 | 4.3 | 8.7 | 0.00 | 0.05 | 0.04 | 35 | 1011.2 |
| 20260906001519 | 98 | 129 | 4.3 | 7.0 | 0.00 | 0.05 | 0.04 | 35 | 1011.3 |
| 20260906001019 | 99 | 122 | 4.3 | 7.0 | 0.00 | 0.05 | 0.04 | 34 | 1011.2 |
| 20260906000520 | 99 | 129 | 5.2 | 7.8 | 0.00 | 0.05 | 0.04 | 34 | 1011.2 |
| 20260906000019 | 99 | 146 | 6.1 | 7.8 | 0.00 | 0.05 | 0.04 | 34 | 1011.2 |
| 20260905235517 | 99 | 141 | 4.3 | 7.8 | 0.00 | 0.05 | 0.04 | 34 | 1011.2 |
| 20260905235017 | 99 | 148 | 5.2 | 7.8 | 0.00 | 0.05 | 0.04 | 34 | 1011.1 |
| 20260905234517 | 99 | 138 | 6.1 | 8.7 | 0.00 | 0.05 | 0.04 | 34 | 1011.1 |
| 20260905234017 | 99 | 106 | 4.3 | 7.8 | 0.00 | 0.05 | 0.04 | 34 | 1011.0 |
| 20260905233517 | 99 | 121 | 5.2 | 8.7 | 0.00 | 0.05 | 0.04 | 34 | 1010.9 |
| 20260905233020 | 99 | 124 | 5.2 | 7.0 | 0.00 | 0.05 | 0.04 | 34 | 1010.9 |
| 20260905232520 | 99 | 101 | 4.3 | 7.0 | 0.00 | 0.05 | 0.04 | 34 | 1010.9 |
| 20260905232020 | 99 | 88 | 5.2 | 8.7 | 0.00 | 0.05 | 0.04 | 35 | 1010.8 |
| 20260905231520 | 99 | 168 | 4.3 | 7.8 | 0.00 | 0.05 | 0.04 | 35 | 1010.9 |
| 20260905231017 | 99 | 173 | 4.3 | 7.8 | 0.00 | 0.05 | 0.04 | 35 | 1010.9 |
| 20260905230518 | 99 | 162 | 6.1 | 10.4 | 0.00 | 0.05 | 0.04 | 35 | 1010.9 |
| 20260905230017 | 99 | 149 | 5.2 | 8.7 | 0.00 | 0.05 | 0.04 | 34 | 1010.9 |
| 20260905225518 | 99 | 129 | 4.3 | 7.8 | 0.00 | 0.05 | 0.04 | 34 | 1010.8 |
| 20260905225018 | 99 | 117 | 4.3 | 7.8 | 0.00 | 0.05 | 0.04 | 34 | 1010.8 |
| 20260905224538 | 99 | 136 | 5.2 | 7.8 | 0.00 | 0.05 | 0.04 | 35 | 1010.8 |
| 20260905224037 | 99 | 166 | 6.1 | 12.2 | 0.00 | 0.05 | 0.04 | 35 | 1010.8 |
| 20260905223518 | 99 | 73 | 3.5 | 8.7 | 0.00 | 0.05 | 0.04 | 35 | 1010.8 |
| 20260905223021 | 99 | 205 | 2.6 | 6.1 | 0.00 | 0.05 | 0.04 | 34 | 1010.8 |
| 20260905222518 | 99 | 155 | 3.5 | 8.7 | 0.00 | 0.05 | 0.04 | 35 | 1010.9 |
| 20260905222038 | 99 | 205 | 7.0 | 12.2 | 0.00 | 0.05 | 0.04 | 35 | 1010.9 |
| 20260905221518 | 99 | 154 | 7.0 | 10.4 | 0.00 | 0.05 | 0.04 | 35 | 1010.8 |
| 20260905221018 | 99 | 188 | 5.2 | 9.6 | 0.00 | 0.05 | 0.04 | 35 | 1010.9 |
| 20260905220518 | 99 | 167 | 5.2 | 10.4 | 0.00 | 0.05 | 0.04 | 35 | 1011.0 |
| 20260905220038 | 99 | 193 | 5.2 | 8.7 | 0.00 | 0.05 | 0.04 | 34 | 1011.0 |
| 20260905215518 | 98 | 166 | 4.3 | 11.3 | 0.00 | 0.05 | 0.04 | 35 | 1011.0 |
| 20260905215038 | 99 | 165 | 5.2 | 8.7 | 0.00 | 0.05 | 0.04 | 35 | 1011.1 |
| 20260905214519 | 99 | 134 | 6.1 | 9.6 | 0.00 | 0.05 | 0.04 | 34 | 1011.2 |
| 20260905214018 | 99 | 203 | 4.3 | 7.8 | 0.00 | 0.05 | 0.04 | 34 | 1011.3 |
| 20260905213539 | 99 | 154 | 5.2 | 9.6 | 0.00 | 0.05 | 0.04 | 35 | 1011.3 |
| 20260905213018 | 99 | 154 | 5.2 | 9.6 | 0.00 | 0.05 | 0.04 | 34 | 1011.4 |
| 20260905212518 | 98 | 164 | 4.3 | 9.6 | 0.00 | 0.05 | 0.04 | 35 | 1011.4 |
| 20260905212039 | 99 | 172 | 5.2 | 8.7 | 0.00 | 0.05 | 0.04 | 34 | 1011.5 |
| 20260905211519 | 99 | 155 | 4.3 | 8.7 | 0.00 | 0.05 | 0.04 | 34 | 1011.5 |
| 20260905211019 | 99 | 154 | 6.1 | 11.3 | 0.00 | 0.05 | 0.04 | 34 | 1011.6 |
| 20260905210519 | 99 | 134 | 4.3 | 7.0 | 0.00 | 0.05 | 0.04 | 35 | 1011.6 |
| 20260905210019 | 98 | 141 | 4.3 | 8.7 | 0.00 | 0.05 | 0.04 | 36 | 1011.7 |
| 20260905205519 | 99 | 167 | 7.0 | 11.3 | 0.00 | 0.05 | 0.04 | 35 | 1011.8 |
| 20260905205019 | 99 | 181 | 7.8 | 12.2 | 0.00 | 0.05 | 0.04 | 35 | 1011.8 |
| 20260905204519 | 99 | 165 | 6.1 | 8.7 | 0.00 | 0.05 | 0.04 | 36 | 1011.9 |